Location: Rathdrum
(47.8130°N, 116.8960°W)
Time: 16:25:29
(UTC-08:00)

Amateur Radio Satellites - All Passes

Search period start: 24 November 2014 15:55
Search period end: 25 November 2014 15:55
Location: Rathdrum, 47.8130°N, 116.8960°W

Satellite Date Start Highest point End Downlink Frequencies (MHz)
Time Altitude Azimuth
Cubesat XI-IV 24 Nov 15:57:20 16:01:39 26° 61° (ENE) 16:05:59 437.490
MOZHAYETS 4 24 Nov 15:57:37 16:01:15 22° 92° (E) 16:04:52
STARS 24 Nov 16:04:08 16:07:24 21° 298° (WNW) 16:10:39 437.465
AO-7 24 Nov 16:17:55 16:25:13 34° 265° (W) 16:32:36 29.400- 29.500
MaSat-1 24 Nov 16:24:35 16:26:41 18° 308° (NW) 16:28:40 437.345
RS-15 24 Nov 16:35:18 16:46:14 80° 123° (ESE) 16:57:14 29.354- 29.394
CUTE-I 24 Nov 16:38:06 16:43:16 51° 68° (ENE) 16:48:27 437.470
O/OREOS (USA 219) 24 Nov 16:50:26 16:53:22 17° 259° (W) 16:56:17 437.305
PHONESAT 2.4 24 Nov 16:57:52 17:00:59 25° 174° (S) 17:04:06 2401.200-2431.200
JAS-2 24 Nov 17:12:42 17:19:47 40° 266° (W) 17:27:08 435.910
VERMONT LUNAR 24 Nov 17:15:08 17:18:12 26° 181° (S) 17:21:16 437.305
STRAND 1 24 Nov 17:29:37 17:32:36 15° 88° (E) 17:35:35 437.568
MOZHAYETS 4 24 Nov 17:34:14 17:38:43 47° 290° (WNW) 17:43:11
CUBESAT XI-V 24 Nov 17:35:01 17:38:09 18° 90° (E) 17:41:15 437.345
Cubesat XI-IV 24 Nov 17:36:09 17:41:25 55° 259° (W) 17:46:43 437.490
GONETS M04 24 Nov 17:36:51 17:44:17 29° 61° (ENE) 17:51:38
PRISM 24 Nov 17:42:36 17:46:43 45° 99° (E) 17:50:46 437.425
CUTE-I 24 Nov 18:19:11 18:23:36 26° 267° (W) 18:28:03 437.470
HO-68 24 Nov 18:22:04 18:28:13 32° 56° (ENE) 18:34:22 435.675
SEEDS 24 Nov 18:26:44 18:28:13 12° 58° (ENE) 18:29:42 437.485
GOMX 1 24 Nov 18:35:10 18:37:23 13° 59° (ENE) 18:39:33 467.674
PHONESAT 2.4 24 Nov 18:36:15 18:39:13 23° 191° (SSW) 18:42:11 2401.200-2431.200
PCSat 24 Nov 18:36:26 18:39:57 18° 105° (ESE) 18:43:28 145.827
AIST 1 24 Nov 18:43:24 18:46:53 23° 87° (E) 18:50:23
AAUSAT CUBESAT 2 24 Nov 18:45:48 18:47:54 14° 59° (ENE) 18:50:01 437.432
RS-15 24 Nov 18:49:25 18:59:41 44° 331° (NNW) 19:10:10 29.354- 29.394
CANX-2 24 Nov 18:50:32 18:53:53 23° 65° (ENE) 18:57:16 2200.000
VERMONT LUNAR 24 Nov 18:53:35 18:56:04 17° 198° (SSW) 18:58:32 437.305
BRITE-PL 24 Nov 18:54:22 18:58:28 27° 66° (ENE) 19:02:19 437.365/2234.400
COMPASS 1 24 Nov 18:58:58 19:02:01 20° 63° (ENE) 19:05:05 437.405
STRAND 1 24 Nov 19:07:17 19:12:25 78° 287° (WNW) 19:17:30 437.568
CUBESAT XI-V 24 Nov 19:11:23 19:16:01 60° 288° (WNW) 19:20:35 437.345
BEESAT 3 24 Nov 19:15:17 19:17:18 13° 110° (ESE) 19:19:20 437.485
PRISM 24 Nov 19:18:48 19:22:00 21° 298° (WNW) 19:25:11 437.425
CUTE 1.7 & AOD 2 24 Nov 19:24:34 19:28:35 45° 71° (ENE) 19:32:39 437.475
BEESAT 2 24 Nov 19:28:49 19:31:28 17° 112° (ESE) 19:34:09 435.950
GONETS M04 24 Nov 19:33:15 19:42:06 77° 265° (W) 19:50:51
DOVE 4 24 Nov 19:35:13 19:39:19 34° 68° (ENE) 19:43:15 437.250
UKube-1 24 Nov 19:44:50 19:48:32 27° 65° (ENE) 19:52:14 .
FUNcube-1 24 Nov 19:47:13 19:49:28 14° 60° (ENE) 19:51:42 145.935
Oscar 11 24 Nov 19:56:52 20:00:48 36° 68° (ENE) 20:04:47 145.826/435.025
AIST 2 24 Nov 19:56:59 19:59:43 17° 111° (ESE) 20:02:30 435.215
SEEDS 24 Nov 19:59:12 20:03:24 89° 256° (WSW) 20:07:39 437.485
CUBEBUG 2 24 Nov 20:05:10 20:08:45 27° 66° (ENE) 20:12:17 437.445
HO-68 24 Nov 20:08:22 20:15:29 65° 257° (WSW) 20:22:40 435.675
UWE-3 24 Nov 20:08:23 20:11:52 26° 66° (ENE) 20:15:20 435.000/436.395/437.385
GOMX 1 24 Nov 20:10:11 20:14:59 86° 256° (WSW) 20:19:29 467.674
PCSat 24 Nov 20:17:16 20:22:41 81° 305° (NW) 20:28:10 145.827
DX 1 24 Nov 20:18:16 20:22:34 58° 71° (ENE) 20:26:53 434.975-435.025
AAUSAT CUBESAT 2 24 Nov 20:18:54 20:23:03 73° 258° (WSW) 20:27:15 437.432
AIST 1 24 Nov 20:20:14 20:24:20 38° 286° (WNW) 20:28:30
CINEMA 3 24 Nov 20:21:01 20:25:20 59° 73° (ENE) 20:29:30 145.822/145.860
CANX-2 24 Nov 20:25:42 20:29:39 38° 263° (W) 20:33:38 2200.000
DELFI C3 24 Nov 20:31:02 20:35:04 68° 74° (ENE) 20:39:09 145.870
BRITE-PL 24 Nov 20:32:06 20:36:51 42° 262° (W) 20:41:16 437.365/2234.400
COMPASS 1 24 Nov 20:33:28 20:37:28 45° 261° (W) 20:41:31 437.405
50 SAT 24 Nov 20:37:59 20:41:10 23° 65° (ENE) 20:44:22 437.505
ESTCUBE 1 24 Nov 20:38:03 20:40:34 15° 58° (ENE) 20:43:07 437.505/2401.250
HUMSAT D 24 Nov 20:39:44 20:43:17 28° 67° (ENE) 20:46:50 437.325/437.525
VELOX 1 24 Nov 20:42:25 20:46:29 35° 67° (ENE) 20:50:33 145.980
ZACube-1 24 Nov 20:45:48 20:49:53 51° 72° (ENE) 20:53:56 437.345
STRAND 1 24 Nov 20:48:20 20:50:47 14° 306° (NW) 20:53:13 437.568
BEESAT 3 24 Nov 20:50:49 20:54:56 79° 309° (NW) 20:59:09 437.485
CUTE 1.7 & AOD 2 24 Nov 21:01:44 21:04:47 19° 269° (W) 21:07:51 437.475
BEESAT 2 24 Nov 21:05:11 21:09:18 65° 310° (NW) 21:13:30 435.950
RS-15 24 Nov 21:05:58 21:15:36 33° 5° (N) 21:25:28 29.354- 29.394
AISAT 24 Nov 21:07:25 21:11:50 61° 72° (ENE) 21:16:16 437.250
DOVE 4 24 Nov 21:13:11 21:17:09 28° 265° (W) 21:20:57 437.250
TIGRISAT 24 Nov 21:17:39 21:19:34 13° 88° (E) 21:21:29 435.000
UKube-1 24 Nov 21:20:36 21:24:36 35° 263° (W) 21:28:37 .
FUNcube-1 24 Nov 21:21:09 21:25:20 69° 258° (WSW) 21:29:31 145.935
CUBEBUG 1 24 Nov 21:25:40 21:29:44 36° 68° (ENE) 21:33:47 437.445
UNISAT 6 24 Nov 21:29:44 21:32:40 17° 91° (E) 21:35:37 437.425
GONETS M04 24 Nov 21:32:05 21:37:21 18° 287° (WNW) 21:42:38
Oscar 11 24 Nov 21:33:32 21:37:05 25° 266° (W) 21:40:40 145.826/435.025
AIST 2 24 Nov 21:33:39 21:37:53 67° 310° (NW) 21:42:12 435.215
QB50P1 24 Nov 21:34:05 21:35:49 12° 88° (E) 21:37:33 145.935-145.965
CUBEBUG 2 24 Nov 21:41:34 21:45:24 32° 264° (W) 21:49:12 437.445
UWE-3 24 Nov 21:44:27 21:48:20 34° 263° (W) 21:52:10 435.000/436.395/437.385
BUGSAT 1 24 Nov 21:51:06 21:53:27 15° 90° (E) 21:55:47 437.445
GOMX 1 24 Nov 21:52:51 21:53:43 10° 273° (W) 21:54:34 467.674
DX 1 24 Nov 21:56:24 21:59:11 17° 269° (W) 22:02:00 434.975-435.025
POPSAT HIP 1 24 Nov 21:57:29 22:00:44 21° 93° (E) 22:03:58 437.405
ANTELSAT 24 Nov 21:57:35 22:01:32 31° 96° (E) 22:05:34 437.575/2403.000
CINEMA 3 24 Nov 22:00:20 22:02:55 15° 270° (W) 22:05:28 145.822/145.860
HO-68 24 Nov 22:01:54 22:04:37 12° 277° (W) 22:07:21 435.675
PCSat 24 Nov 22:02:54 22:06:58 21° 327° (NNW) 22:11:03 145.827
DELFI C3 24 Nov 22:09:07 22:10:52 12° 272° (W) 22:12:37 145.870
ESTCUBE 1 24 Nov 22:12:18 22:16:51 80° 257° (WSW) 22:21:27 437.505/2401.250
50 SAT 24 Nov 22:12:36 22:16:20 36° 263° (W) 22:20:05 437.505
HUMSAT D 24 Nov 22:15:26 22:19:04 30° 264° (W) 22:22:43 437.325/437.525
VELOX 1 24 Nov 22:19:15 22:23:07 28° 265° (W) 22:27:00 145.980
ZACube-1 24 Nov 22:23:50 22:26:35 17° 269° (W) 22:29:19 437.345
POLYITAN 1 24 Nov 22:29:41 22:33:46 45° 99° (E) 22:37:49 437.675
BEESAT 3 24 Nov 22:31:05 22:33:52 17° 329° (NNW) 22:36:40 437.485
QB50P2 24 Nov 22:32:13 22:36:20 48° 100° (E) 22:40:25 145.880/145.840
DUCHIFAT 1 24 Nov 22:39:05 22:43:15 56° 101° (E) 22:47:23 145.980
BEESAT 2 24 Nov 22:45:54 22:48:25 15° 332° (NNW) 22:50:57 435.950
AISAT 24 Nov 22:46:04 22:48:53 16° 270° (W) 22:51:42 437.250
TISAT 1 24 Nov 22:48:41 22:52:55 67° 73° (ENE) 22:57:10 437.305
TIGRISAT 24 Nov 22:52:27 22:56:51 77° 286° (WNW) 23:01:20 435.000
SPROUT 24 Nov 22:54:32 22:58:49 67° 73° (ENE) 23:03:07 437.525
ISS 24 Nov 22:55:21 22:56:51 13° 135° (SE) 22:58:20 145.825
AUBIESAT-1 24 Nov 22:55:53 22:59:31 29° 59° (ENE) 23:03:25 437.475
NANOSAT C BR1 24 Nov 22:58:16 23:02:31 89° 103° (ESE) 23:06:44 145.865
M-CUBED/EXP-1 PRIME 24 Nov 23:00:03 23:03:49 34° 60° (ENE) 23:07:53 437.505
ITUPSAT 1 24 Nov 23:02:09 23:05:33 20° 59° (ENE) 23:08:57 437.325
CUBEBUG 1 24 Nov 23:02:22 23:06:10 27° 265° (W) 23:09:59 437.445
UNISAT 6 24 Nov 23:05:29 23:09:48 57° 288° (WNW) 23:14:13 437.425
QB50P1 24 Nov 23:08:01 23:12:15 73° 286° (WNW) 23:16:27 145.935-145.965
SWISSCUBE 24 Nov 23:12:56 23:16:52 26° 63° (ENE) 23:20:48 437.505
AIST 2 24 Nov 23:14:38 23:17:20 16° 332° (NNW) 23:20:03 435.215
CUSAT 1 24 Nov 23:15:19 23:19:30 59° 77° (ENE) 23:25:09 437.405
RS-15 24 Nov 23:20:10 23:31:01 54° 38° (NE) 23:42:17 29.354- 29.394
BUGSAT 1 24 Nov 23:25:19 23:29:21 56° 288° (WNW) 23:33:20 437.445
POPSAT HIP 1 24 Nov 23:32:52 23:36:50 41° 291° (WNW) 23:40:48 437.405
ANTELSAT 24 Nov 23:34:27 23:38:20 31° 293° (WNW) 23:42:17 437.575/2403.000
DANDE 24 Nov 23:35:46 23:39:51 76° 79° (ENE) 23:45:25 436.750
BEESAT 24 Nov 23:43:32 23:48:03 43° 68° (ENE) 23:52:36 436.000
POLYITAN 1 25 Nov 00:06:18 00:09:28 21° 297° (WNW) 00:12:37 437.675
QB50P2 25 Nov 00:08:53 00:11:57 20° 298° (WNW) 00:15:01 145.880/145.840
DUCHIFAT 1 25 Nov 00:15:57 00:18:45 17° 299° (WNW) 00:21:31 145.980
MaSat-1 25 Nov 00:24:51 00:27:07 50° 243° (WSW) 00:29:24 437.345
TISAT 1 25 Nov 00:27:03 00:29:13 14° 271° (W) 00:31:24 437.305
ISS 25 Nov 00:29:43 00:32:59 67° 153° (SSE) 00:36:16 145.825
KKS-1 25 Nov 00:29:58 00:33:44 28° 65° (ENE) 00:37:30 437.445
AUBIESAT-1 25 Nov 00:30:41 00:34:26 34° 259° (W) 00:38:30 437.475
TIGRISAT 25 Nov 00:31:48 00:32:53 11° 304° (NW) 00:33:58 435.000
SPROUT 25 Nov 00:33:06 00:35:23 14° 271° (W) 00:37:40 437.525
M-CUBED/EXP-1 PRIME 25 Nov 00:35:21 00:38:55 29° 261° (W) 00:42:47 437.505
NANOSAT C BR1 25 Nov 00:36:11 00:37:45 12° 303° (WNW) 00:39:19 145.865
ITUPSAT 1 25 Nov 00:38:13 00:42:59 64° 258° (WSW) 00:47:48 437.325
Oscar 19 25 Nov 00:48:40 00:53:22 34° 96° (E) 00:58:03 437.125/150
SWISSCUBE 25 Nov 00:49:53 00:54:29 46° 261° (W) 00:59:09 437.505
YUBILEINY 25 Nov 00:54:09 01:00:47 25° 78° (ENE) 01:07:24 435.215
CUSAT 1 25 Nov 00:59:31 01:02:33 18° 268° (W) 01:06:08 437.405
DANDE 25 Nov 01:21:14 01:23:12 13° 269° (W) 01:25:24 436.750
BEESAT 25 Nov 01:22:05 01:26:04 26° 266° (W) 01:30:05 436.000
STARS 25 Nov 01:27:25 01:31:47 68° 73° (ENE) 01:36:11 437.465
RS-15 25 Nov 01:32:50 01:43:43 61° 243° (WSW) 01:55:05 29.354- 29.394
PCSat 25 Nov 01:36:18 01:38:41 13° 19° (NNE) 01:41:04 145.827
ITAMSAT 1 25 Nov 01:39:09 01:44:00 38° 97° (E) 01:48:47 435.822/435.867
BEESAT 3 25 Nov 01:53:42 01:54:08 10° 18° (NNE) 01:54:34 437.485
Gurwin Techsat 1B 25 Nov 02:04:44 02:09:43 39° 97° (E) 02:14:39 435.225
KKS-1 25 Nov 02:06:09 02:10:16 36° 263° (W) 02:14:23 437.445
ISS 25 Nov 02:06:35 02:09:46 44° 351° (N) 02:12:58 145.825
BEESAT 2 25 Nov 02:07:34 02:08:52 11° 20° (NNE) 02:10:09 435.950
AO-7 25 Nov 02:23:25 02:27:56 15° 85° (E) 02:32:25 29.400- 29.500
Oscar 19 25 Nov 02:28:01 02:32:44 37° 294° (WNW) 02:37:26 437.125/150
SO-50 25 Nov 02:32:09 02:33:55 12° 108° (ESE) 02:35:43 436.795
AIST 2 25 Nov 02:36:56 02:38:30 12° 20° (NNE) 02:40:04 435.215
YUBILEINY 25 Nov 02:47:45 02:56:34 82° 280° (W) 03:05:25 435.215
MOZHAYETS 4 25 Nov 03:02:59 03:07:01 31° 66° (ENE) 03:11:04
STARS 25 Nov 03:06:22 03:08:45 14° 271° (W) 03:11:09 437.465
HORYU 2 25 Nov 03:10:05 03:14:35 71° 103° (ESE) 03:19:04 437.375
PCSat 25 Nov 03:18:48 03:23:48 35° 44° (NE) 03:28:45 145.827
ITAMSAT 1 25 Nov 03:18:48 03:23:25 33° 296° (WNW) 03:28:00 435.822/435.867
BEESAT 3 25 Nov 03:29:56 03:33:41 30° 41° (NE) 03:37:25 437.485
ISS 25 Nov 03:43:35 03:46:48 48° 12° (NNE) 03:50:01 145.825
BEESAT 2 25 Nov 03:44:27 03:48:22 36° 43° (NE) 03:52:15 435.950
Gurwin Techsat 1B 25 Nov 03:44:52 03:49:37 34° 296° (WNW) 03:54:19 435.225
RS-15 25 Nov 03:48:26 03:53:37 14° 266° (W) 03:58:55 29.354- 29.394
SO-50 25 Nov 04:09:07 04:13:40 84° 127° (SE) 04:18:23 436.795
AO-7 25 Nov 04:13:53 04:22:16 70° 106° (ESE) 04:30:36 29.400- 29.500
AIST 2 25 Nov 04:14:19 04:18:22 37° 43° (NE) 04:22:21 435.215
JAS-2 25 Nov 04:19:11 04:25:40 34° 91° (E) 04:31:28 435.910
PRISM 25 Nov 04:36:42 04:40:49 54° 71° (ENE) 04:44:58 437.425
MOZHAYETS 4 25 Nov 04:40:01 04:44:11 34° 264° (W) 04:48:24
CUBESAT XI-V 25 Nov 04:41:42 04:45:36 26° 64° (ENE) 04:49:31 437.345
HORYU 2 25 Nov 04:48:02 04:50:45 16° 301° (WNW) 04:53:28 437.375
STRAND 1 25 Nov 04:48:16 04:52:49 33° 64° (ENE) 04:57:23 437.568
YUBILEINY 25 Nov 04:48:32 04:54:55 22° 304° (NW) 05:01:20 435.215
CUTE-I 25 Nov 04:53:09 04:56:08 15° 88° (E) 04:59:06 437.470
PCSat 25 Nov 05:02:10 05:07:23 48° 244° (WSW) 05:12:33 145.827
BEESAT 3 25 Nov 05:08:04 05:12:02 41° 240° (WSW) 05:15:57 437.485
ISS 25 Nov 05:20:17 05:23:31 52° 211° (SSW) 05:26:44 145.825
BEESAT 2 25 Nov 05:22:51 05:26:39 33° 242° (WSW) 05:30:24 435.950
O/OREOS (USA 219) 25 Nov 05:25:54 05:29:57 34° 106° (ESE) 05:33:59 437.305
Cubesat XI-IV 25 Nov 05:49:57 05:55:05 46° 99° (E) 06:00:09 437.490
SO-50 25 Nov 05:51:12 05:54:50 22° 328° (NNW) 05:58:34 436.795
AIST 2 25 Nov 05:53:05 05:56:59 33° 242° (WSW) 06:00:49 435.215
JAS-2 25 Nov 06:03:57 06:11:02 53° 294° (WNW) 06:17:20 435.910
AO-7 25 Nov 06:07:16 06:14:31 35° 307° (NW) 06:21:47 29.400- 29.500
PRISM 25 Nov 06:14:01 06:16:43 17° 269° (W) 06:19:27 437.425
CUBESAT XI-V 25 Nov 06:18:22 06:22:51 42° 262° (W) 06:27:22 437.345
AIST 1 25 Nov 06:23:41 06:28:07 76° 80° (E) 06:32:28
STRAND 1 25 Nov 06:27:08 06:31:56 39° 263° (W) 06:36:45 437.568
CUTE-I 25 Nov 06:31:33 06:36:54 84° 286° (WNW) 06:42:13 437.470
GONETS M04 25 Nov 06:43:41 06:50:39 27° 79° (E) 06:57:39
O/OREOS (USA 219) 25 Nov 07:05:21 07:09:22 31° 306° (NW) 07:13:22 437.305
Cubesat XI-IV 25 Nov 07:30:25 07:34:59 30° 298° (WNW) 07:39:31 437.490
HO-68 25 Nov 07:33:11 07:38:26 21° 89° (E) 07:43:39 435.675
SO-50 25 Nov 07:35:55 07:37:10 11° 353° (N) 07:38:25 436.795
SEEDS 25 Nov 07:42:27 07:44:20 13° 88° (E) 07:46:13 437.485
JAS-2 25 Nov 07:50:58 07:54:21 14° 316° (NW) 07:57:36 435.910
AAUSAT CUBESAT 2 25 Nov 08:00:32 08:02:57 15° 89° (E) 08:05:22 437.432
AO-7 25 Nov 08:02:45 08:04:49 11° 331° (NNW) 08:06:54 29.400- 29.500
AIST 1 25 Nov 08:03:31 08:05:06 12° 278° (W) 08:06:41
CANX-2 25 Nov 08:07:54 08:11:37 28° 95° (E) 08:15:20 2200.000
GOMX 1 25 Nov 08:09:27 08:12:23 18° 92° (E) 08:15:20 467.674
CUTE-I 25 Nov 08:13:12 08:16:11 15° 306° (NW) 08:19:10 437.470
COMPASS 1 25 Nov 08:14:31 08:17:54 23° 93° (E) 08:21:17 437.405
TIGRISAT 25 Nov 08:20:02 08:22:51 17° 61° (ENE) 08:25:40 435.000
NANOSAT C BR1 25 Nov 08:21:19 08:23:24 14° 59° (ENE) 08:25:29 145.865
QB50P1 25 Nov 08:30:26 08:33:05 16° 61° (ENE) 08:35:45 145.935-145.965
UNISAT 6 25 Nov 08:32:35 08:35:56 23° 64° (ENE) 08:39:18 437.425
BRITE-PL 25 Nov 08:33:18 08:37:17 43° 98° (E) 08:41:15 437.365/2234.400
GONETS M04 25 Nov 08:37:47 08:46:35 76° 281° (WNW) 08:55:30
CUTE 1.7 & AOD 2 25 Nov 08:42:21 08:46:36 58° 100° (E) 08:50:50 437.475
BUGSAT 1 25 Nov 08:44:48 08:47:47 19° 62° (ENE) 08:50:46 437.445
POPSAT HIP 1 25 Nov 08:54:02 08:57:36 26° 65° (ENE) 09:01:09 437.405
ANTELSAT 25 Nov 09:00:27 09:04:27 41° 69° (ENE) 09:08:29 437.575/2403.000
UKube-1 25 Nov 09:05:02 09:08:52 29° 96° (E) 09:12:40 .
FUNcube-1 25 Nov 09:07:19 09:10:08 17° 91° (E) 09:12:58 145.935
DOVE 4 25 Nov 09:08:03 09:12:09 55° 100° (E) 09:16:19 437.250
SEEDS 25 Nov 09:16:25 09:20:41 73° 286° (WNW) 09:24:56 437.485
Oscar 11 25 Nov 09:16:39 09:20:52 46° 99° (E) 09:25:02 145.826/435.025
SO-50 25 Nov 09:17:27 09:19:51 14° 18° (NNE) 09:22:15 436.795
HO-68 25 Nov 09:19:46 09:27:00 84° 289° (WNW) 09:34:10 435.675
POLYITAN 1 25 Nov 09:26:24 09:30:33 55° 72° (ENE) 09:34:43 437.675
QB50P2 25 Nov 09:28:41 09:32:52 58° 72° (ENE) 09:37:04 145.880/145.840
CUBEBUG 2 25 Nov 09:28:52 09:32:48 37° 97° (E) 09:36:48 437.445
UWE-3 25 Nov 09:30:45 09:34:36 34° 97° (E) 09:38:31 435.000/436.395/437.385
AAUSAT CUBESAT 2 25 Nov 09:34:52 09:39:03 61° 287° (WNW) 09:43:13 437.432
DUCHIFAT 1 25 Nov 09:35:12 09:39:25 66° 73° (ENE) 09:43:39 145.980
DX 1 25 Nov 09:39:31 09:43:53 67° 103° (ESE) 09:48:11 434.975-435.025
CANX-2 25 Nov 09:43:46 09:47:35 32° 292° (WNW) 09:51:25 2200.000
DELFI C3 25 Nov 09:43:48 09:47:57 76° 103° (ESE) 09:52:06 145.870
GOMX 1 25 Nov 09:46:50 09:50:48 44° 289° (WNW) 09:54:48 467.674
CINEMA 3 25 Nov 09:49:30 09:53:42 88° 283° (WNW) 09:58:00 145.822/145.860
COMPASS 1 25 Nov 09:49:50 09:53:47 39° 291° (WNW) 09:57:44 437.405
50 SAT 25 Nov 09:50:21 09:53:41 24° 94° (E) 09:57:01 437.505
NANOSAT C BR1 25 Nov 09:54:28 09:58:44 78° 256° (WSW) 10:03:00 145.865
TIGRISAT 25 Nov 09:55:03 09:59:14 56° 259° (W) 10:03:26 435.000
HUMSAT D 25 Nov 09:56:17 10:00:05 33° 97° (E) 10:03:53 437.325/437.525
ESTCUBE 1 25 Nov 10:02:57 10:05:59 17° 90° (E) 10:09:00 437.505/2401.250
QB50P1 25 Nov 10:04:20 10:08:33 62° 259° (WSW) 10:12:47 145.935-145.965
VELOX 1 25 Nov 10:06:09 10:10:23 42° 99° (E) 10:14:34 145.980
ZACube-1 25 Nov 10:07:18 10:11:31 70° 102° (ESE) 10:15:48 437.345
UNISAT 6 25 Nov 10:08:31 10:12:33 40° 262° (W) 10:16:36 437.425
BRITE-PL 25 Nov 10:12:32 10:15:35 20° 297° (WNW) 10:18:37 437.365/2234.400
BUGSAT 1 25 Nov 10:18:48 10:22:57 52° 260° (W) 10:27:06 437.445
CUTE 1.7 & AOD 2 25 Nov 10:19:18 10:22:08 17° 298° (WNW) 10:24:57 437.475
POPSAT HIP 1 25 Nov 10:29:30 10:33:24 34° 263° (W) 10:37:18 437.405
AISAT 25 Nov 10:31:52 10:36:19 78° 104° (ESE) 10:40:44 437.250
Oscar 19 25 Nov 10:33:36 10:35:30 12° 53° (NE) 10:37:25 437.125/150
ANTELSAT 25 Nov 10:38:11 10:41:28 21° 267° (W) 10:44:46 437.575/2403.000
GONETS M04 25 Nov 10:39:04 10:45:10 20° 306° (NW) 10:51:19
UKube-1 25 Nov 10:41:11 10:45:02 32° 294° (WNW) 10:48:52 .
FUNcube-1 25 Nov 10:42:42 10:46:48 51° 288° (WNW) 10:50:57 145.935
DOVE 4 25 Nov 10:46:56 10:49:35 17° 298° (WNW) 10:52:16 437.250
CUBEBUG 1 25 Nov 10:47:30 10:51:42 43° 99° (E) 10:55:50 437.445
Oscar 11 25 Nov 10:53:27 10:56:46 22° 297° (WNW) 11:00:04 145.826/435.025
SO-50 25 Nov 10:57:16 11:01:46 36° 41° (NE) 11:06:18 436.795
YUBILEINY 25 Nov 10:58:35 11:03:25 16° 50° (NE) 11:08:13 435.215
POLYITAN 1 25 Nov 11:04:08 11:06:52 17° 269° (W) 11:09:35 437.675
CUBEBUG 2 25 Nov 11:05:59 11:09:23 24° 295° (WNW) 11:12:51 437.445
QB50P2 25 Nov 11:06:35 11:09:11 16° 270° (W) 11:11:47 145.880/145.840
UWE-3 25 Nov 11:07:33 11:11:04 26° 294° (WNW) 11:14:39 435.000/436.395/437.385
HO-68 25 Nov 11:08:37 11:13:45 22° 310° (NW) 11:18:52 435.675
DUCHIFAT 1 25 Nov 11:13:34 11:15:45 14° 271° (W) 11:17:56 145.980
DX 1 25 Nov 11:17:00 11:19:38 16° 301° (WNW) 11:22:16 434.975-435.025
DELFI C3 25 Nov 11:20:45 11:22:43 13° 301° (WNW) 11:24:40 145.870
ITAMSAT 1 25 Nov 11:24:13 11:26:58 15° 54° (NE) 11:29:42 435.822/435.867
50 SAT 25 Nov 11:25:24 11:29:05 34° 292° (WNW) 11:32:46 437.505
CINEMA 3 25 Nov 11:29:06 11:30:18 11° 302° (WNW) 11:31:30 145.822/145.860
HUMSAT D 25 Nov 11:32:20 11:35:48 26° 294° (WNW) 11:39:18 437.325/437.525
ESTCUBE 1 25 Nov 11:38:46 11:43:15 58° 288° (WNW) 11:47:41 437.505/2401.250
AO-7 25 Nov 11:40:37 11:42:21 11° 28° (NNE) 11:44:06 29.400- 29.500
VELOX 1 25 Nov 11:43:14 11:46:46 24° 297° (WNW) 11:50:16 145.980
ZACube-1 25 Nov 11:45:07 11:47:25 15° 300° (WNW) 11:49:44 437.345
Gurwin Techsat 1B 25 Nov 11:52:22 11:55:19 15° 55° (NE) 11:58:17 435.225
TISAT 1 25 Nov 12:06:18 12:10:32 78° 103° (ESE) 12:14:44 437.305
Oscar 19 25 Nov 12:08:51 12:13:56 69° 72° (ENE) 12:19:02 437.125/150
AISAT 25 Nov 12:10:00 12:12:23 14° 302° (WNW) 12:14:45 437.250
AUBIESAT-1 25 Nov 12:10:31 12:13:41 17° 94° (E) 12:16:48 437.475
SPROUT 25 Nov 12:14:05 12:18:24 83° 104° (ESE) 12:22:41 437.525
M-CUBED/EXP-1 PRIME 25 Nov 12:14:57 12:18:35 20° 96° (E) 12:22:10 437.505
CUBEBUG 1 25 Nov 12:24:25 12:27:51 23° 297° (WNW) 12:31:14 437.445
CUSAT 1 25 Nov 12:33:37 12:36:08 39° 97° (E) 12:38:37 437.405
ITUPSAT 1 25 Nov 12:36:00 12:40:03 26° 94° (E) 12:44:03 437.325
SO-50 25 Nov 12:37:49 12:42:25 43° 240° (WSW) 12:47:03 436.795
HORYU 2 25 Nov 12:38:07 12:40:23 14° 57° (ENE) 12:42:38 437.375
SWISSCUBE 25 Nov 12:46:57 12:51:23 35° 97° (E) 12:55:46 437.505
YUBILEINY 25 Nov 12:53:48 13:02:27 61° 75° (ENE) 13:11:00 435.215
DANDE 25 Nov 12:56:41 12:59:25 76° 100° (E) 13:02:01 436.750
ITAMSAT 1 25 Nov 13:00:26 13:05:40 81° 73° (ENE) 13:10:54 435.822/435.867
BEESAT 25 Nov 13:17:58 13:22:46 64° 102° (ESE) 13:27:30 436.000
AO-7 25 Nov 13:25:29 13:32:37 34° 52° (NE) 13:39:46 29.400- 29.500
Gurwin Techsat 1B 25 Nov 13:29:11 13:34:30 84° 74° (ENE) 13:39:52 435.225
TISAT 1 25 Nov 13:43:46 13:45:48 13° 302° (WNW) 13:47:50 437.305
AUBIESAT-1 25 Nov 13:44:13 13:49:09 74° 292° (WNW) 13:53:59 437.475
M-CUBED/EXP-1 PRIME 25 Nov 13:49:06 13:53:59 63° 294° (WNW) 13:58:49 437.505
Oscar 19 25 Nov 13:50:24 13:53:47 18° 270° (W) 13:57:12 437.125/150
SPROUT 25 Nov 13:51:57 13:53:53 13° 302° (WNW) 13:55:48 437.525
O/OREOS (USA 219) 25 Nov 13:53:27 13:56:36 18° 47° (NE) 13:59:44 437.305
KKS-1 25 Nov 13:53:52 13:57:54 33° 97° (E) 14:01:55 437.445
RS-15 25 Nov 13:54:41 14:00:22 16° 96° (E) 14:06:00 29.354- 29.394
HORYU 2 25 Nov 14:12:01 14:16:27 82° 256° (WSW) 14:20:55 437.375
ITUPSAT 1 25 Nov 14:13:33 14:18:06 42° 292° (WNW) 14:22:37 437.325
SWISSCUBE 25 Nov 14:24:57 14:29:11 32° 295° (WNW) 14:33:24 437.505
JAS-2 25 Nov 14:34:04 14:40:22 28° 56° (NE) 14:46:41 435.910
ITAMSAT 1 25 Nov 14:42:47 14:45:48 15° 272° (W) 14:48:49 435.822/435.867
PHONESAT 2.4 25 Nov 14:48:22 14:50:14 13° 157° (SSE) 14:52:07 2401.200-2431.200
STARS 25 Nov 14:50:33 14:54:58 85° 105° (ESE) 14:59:22 437.465
YUBILEINY 25 Nov 14:51:14 14:58:46 34° 277° (W) 15:06:16 435.215
BEESAT 25 Nov 14:56:47 15:00:09 19° 301° (WNW) 15:03:30 436.000
VERMONT LUNAR 25 Nov 15:00:44 15:03:13 17° 162° (SSE) 15:05:41 437.305
Gurwin Techsat 1B 25 Nov 15:12:10 15:15:10 15° 272° (W) 15:18:10 435.225
AO-7 25 Nov 15:16:34 15:24:50 71° 254° (WSW) 15:33:11 29.400- 29.500
AUBIESAT-1 25 Nov 15:20:50 15:23:20 14° 310° (NW) 15:25:50 437.475
M-CUBED/EXP-1 PRIME 25 Nov 15:26:10 15:28:07 12° 312° (NW) 15:30:05 437.505
MaSat-1 25 Nov 15:30:29 15:33:19 53° 302° (WNW) 15:35:56 437.345
KKS-1 25 Nov 15:30:38 15:34:29 29° 295° (WNW) 15:38:19 437.445
O/OREOS (USA 219) 25 Nov 15:32:02 15:36:29 68° 248° (WSW) 15:40:55 437.305
Cubesat XI-IV 25 Nov 15:37:48 15:41:23 19° 57° (ENE) 15:44:58 437.490
